Temp
59 59 59 58 58 58 58 58 56 57 57 56 56 56 56 55 55 54 53 52 52 52
58 57 56 56 57 57 57 56 55 56 56 56 56 55 54 54 54 53 53 52 52 51
56 56 55 56 55 55 55 55 54 54 55 54 54 54 52 52 52 51 51 51 50 51
54 54 55 55 54 55 54 54 54 53 53 52 52 53 52 51 51 49 50 50 49 49
54 54 55 55 54 54 54 53 52 52 51 51 51 51 50 50 50 49 48 49 48 48
53 53 53 53 53 52 52 52 52 50 50 50 50 49 50 49 49 49 49 48 48 48
52 52 52 51 51 51 51 50 51 50 49 48 48 48 48 48 48 48 48 48 48 49
51 51 50 50 50 50 49 50 49 48 48 48 47 48 48 49 49 48 48 48 49 49
50 49 49 49 49 48 48 48 48 47 46 45 46 47 48 49 48 48 47 46 47 48
49 48 48 48 47 47 47 47 46 45 45 44 46 46 48 48 48 45 45 44 44 45
48 47 47 46 46 46 46 45 44 44 44 44 44 45 46 48 46 45 45 44 44 44
47 46 45 44 45 45 44 44 43 43 42 42 42 44 46 47 44 44 44 45 45 46
46 45 44 44 44 43 42 41 42 42 43 42 41 43 45 46 43 41 41 45 45 45
45 44 44 43 43 41 41 40 40 40 41 42 43 43 45 46 44 43 43 40 41 42
MSLP
1019.89 1020.21 1020.48 1020.79 1021.03 1021.24 1021.41 1021.70 1022.07 1022.23 1022.35 1022.50 1022.65 1022.74 1022.80 1022.79 1022.77 1022.82 1022.85 1022.83 1022.76 1022.62
1020.19 1020.47 1020.76 1020.97 1021.14 1021.39 1021.67 1021.93 1022.21 1022.35 1022.43 1022.54 1022.58 1022.64 1022.73 1022.69 1022.61 1022.64 1022.63 1022.48 1022.37 1022.28
1020.41 1020.69 1021.06 1021.33 1021.47 1021.63 1021.82 1021.98 1022.12 1022.24 1022.33 1022.40 1022.43 1022.47 1022.58 1022.53 1022.46 1022.42 1022.35 1022.22 1021.88 1021.71
1020.80 1021.08 1021.22 1021.35 1021.57 1021.72 1021.90 1022.04 1022.20 1022.33 1022.40 1022.41 1022.41 1022.40 1022.41 1022.25 1022.12 1021.96 1021.68 1021.64 1021.44 1021.14
1020.87 1021.13 1021.31 1021.49 1021.64 1021.78 1021.96 1022.20 1022.24 1022.27 1022.24 1022.19 1022.09 1022.01 1021.94 1021.72 1021.51 1021.26 1020.98 1020.80 1020.67 1020.35
1020.94 1021.16 1021.39 1021.62 1021.83 1021.92 1021.94 1021.95 1021.96 1022.03 1021.98 1021.91 1021.83 1021.66 1021.45 1021.22 1020.96 1020.69 1020.36 1020.08 1019.82 1019.60
1021.05 1021.26 1021.43 1021.61 1021.72 1021.81 1021.89 1021.89 1021.78 1021.71 1021.68 1021.56 1021.40 1021.26 1021.00 1020.61 1020.25 1019.92 1019.62 1019.24 1019.00 1018.64
1021.03 1021.25 1021.44 1021.55 1021.60 1021.65 1021.67 1021.65 1021.58 1021.45 1021.25 1021.15 1021.03 1020.65 1020.34 1019.89 1019.36 1018.99 1018.60 1018.27 1017.94 1017.61
1021.15 1021.27 1021.29 1021.27 1021.31 1021.42 1021.43 1021.28 1021.15 1020.96 1020.91 1020.72 1020.46 1020.12 1019.70 1019.23 1018.57 1018.07 1017.67 1017.21 1016.97 1016.61
1020.98 1020.95 1021.00 1021.10 1021.15 1021.10 1021.02 1020.99 1020.87 1020.68 1020.51 1020.23 1019.93 1019.56 1018.99 1018.40 1017.79 1017.32 1016.97 1016.65 1016.33 1015.92
1020.81 1020.81 1020.89 1020.95 1020.93 1020.91 1020.91 1020.64 1020.54 1020.36 1020.19 1019.85 1019.45 1018.90 1018.30 1017.66 1016.94 1016.60 1016.30 1015.95 1015.62 1015.24
1020.79 1020.75 1020.75 1020.75 1020.69 1020.64 1020.60 1020.38 1020.21 1020.10 1019.75 1019.32 1018.69 1018.24 1017.63 1016.89 1016.35 1015.93 1015.58 1015.13 1014.85 1014.40
1020.76 1020.73 1020.69 1020.63 1020.50 1020.51 1020.48 1020.25 1020.03 1019.65 1019.21 1018.71 1018.10 1017.59 1017.08 1016.27 1015.69 1015.33 1014.81 1014.19 1013.97 1013.71
1020.60 1020.62 1020.58 1020.57 1020.51 1020.43 1020.26 1020.07 1019.66 1019.13 1018.49 1018.04 1017.59 1017.05 1016.43 1015.75 1014.99 1014.57 1014.03 1013.59 1013.29 1012.92
Wind_Speed
4 3 3 3 3 3 3 4 4 4 4 4 3 3 3 3 4 5 5 8 7 7
6 6 6 6 5 3 4 4 4 4 4 3 2 2 3 4 6 6 6 8 9 8
7 6 6 5 5 5 5 4 4 3 2 2 3 4 4 5 6 7 7 7 10 10
6 6 5 5 4 4 4 3 2 1 3 4 5 6 6 7 8 10 10 9 10 12
6 5 4 4 4 3 1 0 2 3 5 6 7 7 8 10 10 11 12 12 12 13
4 3 3 2 1 1 2 3 3 5 6 7 8 9 10 11 12 12 13 13 13 14
3 3 2 2 3 3 2 4 5 6 7 8 9 9 10 11 12 13 13 14 15 16
1 2 3 4 3 3 4 5 6 7 8 8 8 7 10 12 14 16 16 16 15 15
2 3 4 4 4 4 5 6 7 8 8 9 7 14 21 20 15 16 16 15 14 13
4 4 4 4 4 5 6 7 8 8 8 9 11 19 22 22 14 12 11 11 10 11
4 5 5 5 5 6 6 7 8 8 8 11 11 20 21 21 12 9 10 11 11 12
4 5 4 5 6 6 6 7 7 8 11 13 13 18 19 19 11 11 13 12 14 14
4 4 4 5 6 5 6 7 7 10 12 14 13 16 18 18 9 10 9 13 12 21
3 4 4 5 5 5 6 7 9 11 11 11 11 12 19 21 10 8 10 8 8 6
Wind_Direction
142 133 115 137 141 132 135 135 134 121 117 120 140 166 201 240 257 256 257 262 256 264
117 125 130 129 123 115 113 127 123 128 143 167 207 251 259 271 276 277 276 270 268 263
120 114 110 116 123 131 130 133 154 174 207 253 279 282 276 274 272 271 271 268 266 267
108 118 127 126 128 137 155 179 205 258 290 282 282 284 276 271 271 270 274 268 268 272
123 115 111 131 156 175 212 267 284 274 278 286 284 282 277 279 280 278 277 277 270 274
112 129 143 164 201 256 245 248 269 282 282 285 284 282 277 276 277 277 275 276 271 274
141 156 208 240 245 240 249 279 284 283 280 278 282 282 282 278 279 276 274 273 269 271
171 220 239 255 255 256 272 284 283 282 283 291 290 284 289 286 285 283 282 277 272 269
306 274 266 271 254 270 284 293 296 295 296 294 288 294 299 297 292 288 283 280 275 273
281 296 298 288 276 286 297 299 296 296 296 292 300 300 299 297 292 286 284 285 281 279
309 294 299 281 280 286 290 300 300 296 291 296 297 299 301 297 293 292 284 279 276 272
323 301 289 277 283 295 297 303 300 295 299 300 299 298 299 308 298 293 291 288 278 276
296 280 287 293 306 306 302 296 302 303 298 294 294 294 305 306 298 290 280 283 290 283
337 311 303 301 302 305 307 304 307 305 301 296 290 291 301 308 305 300 295 288 288 272